Location: Paddlesworth
(51.1000°N, 1.1333°E)
Time: 07:20:00
(UTC+00:00)

Cosmos 1844 Rocket - Pass Details

Date: 11 May 2021
Orbit: 823 x 846 km, 71.0° (Epoch: 20 June)

Event Time Altitude Azimuth Distance (km) Brightness Sun altitude
Rises 20:21:36 0° 217° (SW) 3,349 5.8 -7.0°
Reaches altitude 10° 20:24:03 10° 220° (SW) 2,422 5.1 -7.2°
Maximum altitude 20:29:34 67° 303° (WNW) 895 3.1 -7.9°
Drops below altitude 10° 20:35:09 10° 27° (NNE) 2,447 5.3 -8.5°
Sets 20:37:38 0° 30° (NNE) 3,388 6.0 -8.8°
